• Join FlightAware (Why Join?)
  • Login
  • US Flag 
Rudolph Flight #1: Arrived! 
02:07PM EST


 

Airport Tracker/Info


-or-


 

Live Flight TrackerFlight Track Log ✈ AMF1324 ✈ 19-Sep-2013 ✈ KBGM - KBUF

Flight Track Log - Related Links

Times and Time Zones

All times are in EDT time to prevent confusion due to time zone crossing. See the AMF1324 flight status page for this flight to view local times or setup timezone preferences in your user account.

Time Position Orientation Groundspeed Altitude Reporting Facility
EDT Latitude Longitude Course Direction KTS MPH feet Rate Location/Type
08:23AM 42.1600 -76.0217 297° West 245 282 5,000  Level Cleveland Center
08:24AM 42.1564 -76.1153 267° West 255 293 5,400 1,500 Climbing Cleveland Center
08:25AM 42.1817 -76.1956 293° West 216 249 8,100 2,100 Climbing Cleveland Center
08:26AM 42.2081 -76.2531 302° West 185 213 9,800 1,620 Climbing Cleveland Center
08:27AM 42.2369 -76.3294 297° West 197 227 11,500 1,020 Climbing Cleveland Center
08:28AM 42.2965 -76.2946 297° West  Level Estimated
08:28AM 42.2653 -76.3944 301° West 201 231 12,000  Level Cleveland Center
08:29AM 42.2958 -76.4744 297° West 220 253 12,000  Level Cleveland Center
08:30AM 42.3328 -76.5494 304° West 237 273 12,000  Level Cleveland Center
08:31AM 42.3725 -76.6222 306° West 241 277 12,000  Level Cleveland Center
08:32AM 42.4081 -76.6983 302° West 241 277 12,000  Level Cleveland Center
08:33AM 42.4483 -76.7883 301° West 235 270 12,000  Level Cleveland Center
08:34AM 42.4814 -76.8664 300° West 238 274 12,000  Level Cleveland Center
08:35AM 42.5150 -76.9431 301° West 239 275 12,000  Level Cleveland Center
08:36AM 42.5458 -77.0206 298° West 236 272 12,000  Level Cleveland Center
08:37AM 42.5731 -77.1019 294° West 239 275 12,000  Level Cleveland Center
08:38AM 42.6014 -77.1808 296° West 237 273 12,000  Level Cleveland Center
08:39AM 42.6264 -77.2419 299° West 235 270 12,000 -120 Level Cleveland Center
08:39AM 42.6317 -77.2586 293° West 234 269 11,900 -720 Descending Cleveland Center
08:39AM 42.6389 -77.2739 303° West 235 270 11,700 -1,320 Descending Cleveland Center
08:40AM 42.6686 -77.3503 298° West 253 291 10,700 -1,140 Descending Cleveland Center
08:40AM 42.6708 -77.3567 295° West 244 281 10,600 -720 Descending Cleveland Center
08:41AM 42.7053 -77.4347 301° West 264 304 10,000 -600 Descending Cleveland Center
08:41AM 42.7081 -77.4422 297° West 266 306 10,000  Level Cleveland Center
08:42AM 42.7456 -77.5114 306° West 237 273 10,000  Level Cleveland Center
08:42AM 42.7475 -77.5147 308° West 249 287 10,000  Level Cleveland Center
08:43AM 42.7789 -77.5892 300° West 232 267 10,000  Level Cleveland Center
08:43AM 42.7789 -77.5914 270° West 240 276 10,000  Level Cleveland Center
08:44AM 42.8094 -77.6722 297° West 238 274 10,000  Level Cleveland Center
08:44AM 42.8075 -77.6694 134° Southeast 235 270 10,000  Level Cleveland Center
08:45AM 42.8319 -77.7531 292° West 237 273 10,000  Level Cleveland Center
08:45AM 42.8319 -77.7683 270° West 238 274 10,000 -1,080 Level Cleveland Center
08:47AM 42.8314 -77.8694 270° West 265 305 8,700 -1,500 Descending Cleveland Center
08:48AM 42.8289 -77.9594 268° West 258 297 7,000 -1,440 Descending Cleveland Center
08:49AM 42.8389 -78.0633 278° West 251 289 5,800 -1,080 Descending Cleveland Center
08:50AM 42.8567 -78.1533 285° West 238 274 4,900 -840 Descending Cleveland Center
08:51AM 42.8742 -78.2236 289° West 227 261 4,100 -480 Descending Cleveland Center
08:52AM 42.9022 -78.3139 293° West 222 255 4,000 -60 Descending Cleveland Center
08:53AM 42.9261 -78.3914 293° West 215 247 4,000 -300 Level Cleveland Center
08:54AM 42.9469 -78.4711 290° West 217 250 3,400 -780 Descending Cleveland Center
08:55AM 42.9658 -78.5392 291° West 204 235 2,500 -540 Descending Cleveland Center
08:56AM 42.9825 -78.6042 289° West 201 231 2,400 -480 Descending Cleveland Center
08:57AM 42.9833 -78.6500 271° West 108 124 1,600 -540 Descending Buffalo TRACON
08:58AM 42.9667 -78.6833 236° Southwest 121 139 1,400 -180 Descending Buffalo TRACON
09:00AM 42.9333 -78.7167 270° West  Level FlightAware Approximate
09:07AM 42.9404 -78.7306 270° West  Level Estimated